Mount Shasta, CA

3:11 AM PDT on March 28, 2017 (GMT -0700)
Mount Shasta

Weather History for KMHS - October, 2012

Change the Weather History Date:

Tuesday, October 9, 2012

  Actual Average Record
Temperature  
Mean Temperature 53 °F 54 °F  
Max Temperature 70 °F 70 °F 88 °F (1921)
Min Temperature 36 °F 38 °F 16 °F (1985)
Degree Days  
Heating Degree Days 12 11  
Month to date heating degree days 55 89  
Since 1 July heating degree days 100 326  
Cooling Degree Days 0 0  
Month to date cooling degree days 4 0  
Year to date cooling degree days 392 287  
Growing Degree Days 2 (Base 50)    
Moisture  
Dew Point 39 °F    
Average Humidity 66    
Maximum Humidity 92    
Minimum Humidity 35    
Precipitation  
Precipitation 0.00 in 0.05 in 2.00 in (1926)
Month to date precipitation 0.00 0.32  
Year to date precipitation 24.56 28.32  
Sea Level Pressure  
Sea Level Pressure 30.06 in    
Wind  
Wind Speed 0 mph (North)    
Max Wind Speed 6 mph    
Max Gust Speed 10 mph    
T = Trace of Precipitation, MM = Missing Value Source: NWS Daily Summary

Daily Weather History Graph

Daily Weather History Graph

Search for Another Location

Airport or City:

Trip Planner

Search our weather history database for the weather conditions in past years. The results will help you decide how hot, cold, wet, or windy it might be!

Date:

Astronomy

Oct. 09, 2012 Rise Set
Actual Time 7:15 AM PDT 6:36 PM PDT
Civil Twilight 6:47 AM PDT 7:04 PM PDT
Nautical Twilight 6:15 AM PDT 7:36 PM PDT
Astronomical Twilight 5:43 AM PDT 8:08 PM PDT
Moon 12:53 AM PDT (10/9) 3:10 PM PDT (10/9)
Length of Visible Light 12h 17m
Length of Day
11h 21m
Waning Crescent, 35% of the Moon is Illuminated
Oct 9
Waning Crescent
Oct 15
New
Oct 21
First Quarter
Oct 29
Full
Nov 6
Last Quarter

Hourly Weather History & Observations

Time (PDT) Temp. Dew Point Humidity Pressure Visibility Wind Dir Wind Speed Gust Speed Precip Events Conditions
12:56 AM 42.1 °F 37.9 °F 85% 30.08 in - Calm Calm - N/A   Clear
1:56 AM 43.0 °F 37.9 °F 82% 30.08 in - Calm Calm - N/A   Clear
2:56 AM 42.1 °F 37.9 °F 85% 30.09 in - Calm Calm - N/A   Scattered Clouds
3:56 AM 41.0 °F 37.0 °F 86% 30.08 in - Calm Calm - N/A   Partly Cloudy
4:56 AM 39.9 °F 36.0 °F 86% 30.08 in - Calm Calm - N/A   Scattered Clouds
5:56 AM 37.9 °F 35.1 °F 89% 30.09 in - Calm Calm - N/A   Clear
6:56 AM 37.0 °F 33.1 °F 86% 30.11 in - Calm Calm - N/A   Clear
7:56 AM 37.9 °F 34.0 °F 86% 30.13 in - Calm Calm - N/A   Clear
8:56 AM 45.0 °F 39.0 °F 80% 30.11 in - Calm Calm - N/A   Clear
9:56 AM 54.0 °F 44.1 °F 69% 30.10 in - Calm Calm - N/A   Clear
10:56 AM 61.0 °F 42.1 °F 50% 30.08 in - Calm Calm - N/A   Clear
11:56 AM 64.9 °F 42.1 °F 43% 30.06 in - Calm Calm - N/A   Clear
12:56 PM 66.0 °F 43.0 °F 43% 30.05 in - Calm Calm - N/A   Clear
1:56 PM 66.9 °F 42.1 °F 40% 30.03 in - Calm Calm - N/A   Clear
2:56 PM 68.0 °F 39.0 °F 35% 30.02 in - Variable 3.5 mph - N/A   Clear
3:56 PM 68.0 °F 39.9 °F 36% 30.01 in - Calm Calm - N/A   Clear
4:56 PM 66.0 °F 39.9 °F 38% 30.01 in - Calm Calm - N/A   Clear
5:56 PM 64.0 °F 37.9 °F 38% 30.02 in - Variable 3.5 mph - N/A   Clear
6:56 PM 54.0 °F 39.9 °F 59% 30.04 in - Calm Calm - N/A   Clear
7:56 PM 51.1 °F 39.0 °F 63% 30.05 in - Calm Calm - N/A   Clear
8:56 PM 48.0 °F 39.0 °F 71% 30.05 in - Calm Calm - N/A   Clear
9:56 PM 45.0 °F 37.0 °F 74% 30.05 in - Calm Calm - N/A   Clear
10:56 PM 43.0 °F 36.0 °F 76% 30.04 in - Calm Calm - N/A   Clear
11:56 PM 42.1 °F 36.0 °F 79% 30.03 in - Calm Calm - N/A   Clear